This is the latest recevied weather packets stored in our database for station/object GW4003. If no packets are shown the sender has not sent any weather packets the latest 1 day(s).
| Time | Temp. | Humidity | Pressure | Rain* | Wind** | Luminosity | Snow |
|---|---|---|---|---|---|---|---|
| 1777980667 | 4.44° C | 87% | 1014.5 hPa | 1.78 mm | 0.45 m/s, 9° | - | - |
| 1777980363 | 4.44° C | 87% | 1014.5 hPa | 1.52 mm | 2.68 m/s, 22° | - | - |
| 1777980060 | 4.44° C | 87% | 1014.4 hPa | 1.27 mm | 1.79 m/s, 16° | - | - |
| 1777979757 | 4.44° C | 87% | 1014.3 hPa | 1.02 mm | 2.24 m/s, 314° | - | - |
| 1777979454 | 4.44° C | 87% | 1014.2 hPa | 1.02 mm | 1.79 m/s, 304° | - | - |
| 1777979150 | 4.44° C | 87% | 1014.2 hPa | 1.27 mm | 1.79 m/s, 17° | - | - |
| 1777978847 | 4.44° C | 87% | 1014.2 hPa | 1.52 mm | 0.45 m/s, 49° | - | - |
| 1777978544 | 4.44° C | 87% | 1013.8 hPa | 1.78 mm | 1.79 m/s, 341° | - | - |
| 1777978240 | 5° C | 87% | 1013.8 hPa | 1.52 mm | 3.58 m/s, 330° | - | - |
| 1777977936 | 5° C | 87% | 1013.7 hPa | 1.52 mm | 2.68 m/s, 339° | - | - |
| 1777977633 | 5° C | 87% | 1013.6 hPa | 1.27 mm | 3.58 m/s, 11° | - | - |
| 1777977330 | 5° C | 87% | 1013.5 hPa | 1.27 mm | 0.89 m/s, 47° | - | - |
| 1777977026 | 5° C | 87% | 1013.3 hPa | 1.27 mm | 3.58 m/s, 311° | - | - |
| 1777976723 | 5.56° C | 87% | 1013.4 hPa | 1.02 mm | 3.13 m/s, 298° | - | - |
| 1777976420 | 5.56° C | 87% | 1013.3 hPa | 1.02 mm | 1.79 m/s, 340° | - | - |
| 1777976117 | 5.56° C | 87% | 1013.2 hPa | 1.02 mm | 1.79 m/s, 317° | - | - |
| 1777975813 | 5.56° C | 87% | 1013.1 hPa | 0.76 mm | 2.68 m/s, 314° | - | - |
| 1777975510 | 6.11° C | 87% | 1013.1 hPa | 0.76 mm | 3.58 m/s, 297° | - | - |
| 1777975207 | 6.11° C | 87% | 1012.9 hPa | 0.51 mm | 2.24 m/s, 360° | - | - |
| 1777974904 | 6.11° C | 87% | 1012.8 hPa | 0.25 mm | 0.89 m/s, 207° | - | - |
| 1777974601 | 6.11° C | 87% | 1012.8 hPa | 0.25 mm | 0.45 m/s, 360° | - | - |
| 1777974297 | 6.67° C | 87% | 1012.7 hPa | 0 mm | 2.24 m/s, 323° | - | - |
| 1777973994 | 6.67° C | 87% | 1012.6 hPa | 0 mm | 3.13 m/s, 109° | - | - |
| 1777973691 | 6.67° C | 87% | 1012.6 hPa | 0 mm | 1.79 m/s, 323° | - | - |
| 1777973388 | 6.67° C | 87% | 1012.6 hPa | 0 mm | 4.92 m/s, 284° | - | - |
* Rain latest hour (hover to see other rain measurements)
** Current wind speed in m/s (hover to see current wind gust speed)